AMX55KB MMMY-MMAA

Flight info

Callsign AMX55KB
Flight time 1h 22m
Altitude 39000
Route URSUR1A URSUR DCT DARAN DCT TEVOS/N0469F380 DCT ANALU ANALU1B
Aircraft B38M/M-SDE1FGHILORVWXY/HB1

Departure

Time 2026-05-06 01:54
Airport Monterrey International Airport (MMMY)

Arrival

Time 2026-05-06 03:16
Airport General Juan N. Álvarez International Airport (MMAA)
Time Latitude Longitude Altitude Speed Heading
2026-05-06 01:32 25.77850 -100.11286 1333 ft 0 kts 211°
2026-05-06 01:46 25.77870 -100.11276 1333 ft 6 kts 198°
2026-05-06 01:47 25.77924 -100.11265 1335 ft 4 kts 174°
2026-05-06 01:47 25.77926 -100.11265 1335 ft 1 kts 162°
2026-05-06 01:47 25.77920 -100.11255 1334 ft 3 kts 114°
2026-05-06 01:47 25.77903 -100.11206 1333 ft 11 kts 112°
2026-05-06 01:48 25.77861 -100.11113 1333 ft 15 kts 121°
2026-05-06 01:48 25.77804 -100.11009 1333 ft 16 kts 121°
2026-05-06 01:48 25.77740 -100.10892 1333 ft 20 kts 121°
2026-05-06 01:48 25.77662 -100.10747 1333 ft 24 kts 121°
2026-05-06 01:49 25.77568 -100.10576 1333 ft 28 kts 122°
2026-05-06 01:49 25.77459 -100.10382 1333 ft 31 kts 121°
2026-05-06 01:49 25.77208 -100.09923 1333 ft 37 kts 121°
2026-05-06 01:50 25.77073 -100.09678 1333 ft 37 kts 122°
2026-05-06 01:50 25.76942 -100.09440 1333 ft 36 kts 122°
2026-05-06 01:50 25.76913 -100.09249 1333 ft 23 kts 37°
2026-05-06 01:50 25.77030 -100.09202 1333 ft 8 kts 316°
2026-05-06 01:51 25.77064 -100.09257 1333 ft 10 kts 301°
2026-05-06 01:51 25.77121 -100.09365 1333 ft 23 kts 300°
2026-05-06 01:51 25.77256 -100.09606 1333 ft 62 kts 301°
2026-05-06 01:51 25.77597 -100.10231 1333 ft 121 kts 301°
2026-05-06 01:52 25.78024 -100.11014 1333 ft 78 kts 301°
2026-05-06 01:52 25.78280 -100.11479 1333 ft 54 kts 301°
2026-05-06 01:52 25.78373 -100.11714 1333 ft 17 kts 330°
2026-05-06 01:52 25.78395 -100.11710 1333 ft 2 kts 58°
2026-05-06 01:53 25.78393 -100.11683 1333 ft 7 kts 116°
2026-05-06 01:53 25.78278 -100.11473 1333 ft 66 kts 121°
2026-05-06 01:53 25.77927 -100.10831 1333 ft 126 kts 121°
2026-05-06 01:53 25.77382 -100.09841 1374 ft 169 kts 121°
2026-05-06 01:54 25.76741 -100.08699 1799 ft 176 kts 121°
2026-05-06 01:54 25.76078 -100.07554 2398 ft 179 kts 121°
2026-05-06 01:54 25.75410 -100.06372 2985 ft 179 kts 120°
2026-05-06 01:54 25.74770 -100.05191 3585 ft 181 kts 121°
2026-05-06 01:55 25.74123 -100.03999 4221 ft 178 kts 122°
2026-05-06 01:55 25.73478 -100.02821 4789 ft 180 kts 123°
2026-05-06 01:55 25.72805 -100.01633 5298 ft 184 kts 122°
2026-05-06 01:55 25.72137 -100.00401 5812 ft 187 kts 122°
2026-05-06 01:56 25.71447 -99.99184 6313 ft 191 kts 130°
2026-05-06 01:56 25.70421 -99.98298 6802 ft 189 kts 159°
2026-05-06 01:56 25.69131 -99.98080 7272 ft 185 kts 183°
2026-05-06 01:56 25.67839 -99.98176 7708 ft 190 kts 185°
2026-05-06 01:57 25.66469 -99.98260 7906 ft 203 kts 184°
2026-05-06 01:57 25.65007 -99.98322 8090 ft 219 kts 182°
2026-05-06 01:57 25.63427 -99.98347 8154 ft 241 kts 182°
2026-05-06 01:57 25.61704 -99.98354 8412 ft 251 kts 181°
2026-05-06 01:58 25.59913 -99.98367 8636 ft 265 kts 180°
2026-05-06 01:58 25.58028 -99.98357 8854 ft 277 kts 180°
2026-05-06 01:58 25.56062 -99.98356 9042 ft 288 kts 180°
2026-05-06 01:58 25.54022 -99.98362 9292 ft 296 kts 180°
2026-05-06 01:59 25.51961 -99.98376 9687 ft 298 kts 181°
2026-05-06 01:59 25.49882 -99.98392 10040 ft 299 kts 181°
2026-05-06 01:59 25.47766 -99.98411 10144 ft 313 kts 181°
2026-05-06 01:59 25.45524 -99.98430 10364 ft 331 kts 181°
2026-05-06 02:00 25.43160 -99.98450 10532 ft 350 kts 181°
2026-05-06 02:00 25.40653 -99.98474 10667 ft 369 kts 181°
2026-05-06 02:00 25.38925 -99.98492 10758 ft 380 kts 181°
2026-05-06 02:00 25.36238 -99.98534 10996 ft 391 kts 183°
2026-05-06 02:01 25.33505 -99.98666 11455 ft 394 kts 183°
2026-05-06 02:01 25.30759 -99.98799 11956 ft 396 kts 183°
2026-05-06 02:01 25.28004 -99.98927 12539 ft 395 kts 184°
2026-05-06 02:01 25.25258 -99.99055 13060 ft 396 kts 185°
2026-05-06 02:02 25.22498 -99.99182 13508 ft 397 kts 185°
2026-05-06 02:02 25.19760 -99.99307 13905 ft 399 kts 185°
2026-05-06 02:02 25.16974 -99.99435 14310 ft 402 kts 185°
2026-05-06 02:02 25.14170 -99.99564 14648 ft 405 kts 185°
2026-05-06 02:03 25.11335 -99.99691 15044 ft 406 kts 185°
2026-05-06 02:03 25.08503 -99.99823 15449 ft 408 kts 185°
2026-05-06 02:03 25.05658 -99.99955 15834 ft 409 kts 185°
2026-05-06 02:03 25.02835 -100.00085 16159 ft 412 kts 185°
2026-05-06 02:04 24.99964 -100.00213 16422 ft 412 kts 185°
2026-05-06 02:04 24.97095 -100.00344 16782 ft 413 kts 185°
2026-05-06 02:04 24.94198 -100.00398 16983 ft 420 kts 179°
2026-05-06 02:04 24.91272 -100.00186 17376 ft 421 kts 180°
2026-05-06 02:05 24.88330 -100.00003 17743 ft 423 kts 180°
2026-05-06 02:05 24.85385 -99.99835 18085 ft 424 kts 180°
2026-05-06 02:05 24.82435 -99.99675 18275 ft 426 kts 180°
2026-05-06 02:05 24.79469 -99.99514 18473 ft 427 kts 180°
2026-05-06 02:06 24.76535 -99.99359 18752 ft 428 kts 180°
2026-05-06 02:06 24.73550 -99.99200 18945 ft 431 kts 180°
2026-05-06 02:06 24.70550 -99.99040 19306 ft 430 kts 181°
2026-05-06 02:06 24.67538 -99.98881 19467 ft 433 kts 180°
2026-05-06 02:07 24.64522 -99.98720 19689 ft 436 kts 180°
2026-05-06 02:07 24.61485 -99.98559 19934 ft 437 kts 180°
2026-05-06 02:07 24.58438 -99.98397 20164 ft 439 kts 180°
2026-05-06 02:07 24.55376 -99.98235 20378 ft 441 kts 180°
2026-05-06 02:08 24.52315 -99.98072 20691 ft 441 kts 180°
2026-05-06 02:08 24.49242 -99.97910 20914 ft 443 kts 180°
2026-05-06 02:08 24.46187 -99.97747 21151 ft 444 kts 180°
2026-05-06 02:08 24.43092 -99.97584 21367 ft 446 kts 180°
2026-05-06 02:09 24.39984 -99.97419 21580 ft 447 kts 181°
2026-05-06 02:09 24.36875 -99.97255 21809 ft 448 kts 180°
2026-05-06 02:09 24.33755 -99.97090 22004 ft 449 kts 181°
2026-05-06 02:09 24.30625 -99.96924 22203 ft 450 kts 181°
2026-05-06 02:10 24.27493 -99.96758 22405 ft 451 kts 180°
2026-05-06 02:10 24.24383 -99.96595 22510 ft 453 kts 181°
2026-05-06 02:10 24.21240 -99.96429 22802 ft 452 kts 181°
2026-05-06 02:10 24.18074 -99.96262 22911 ft 455 kts 181°
2026-05-06 02:11 24.14909 -99.96095 23130 ft 455 kts 181°
2026-05-06 02:11 24.11740 -99.95925 23244 ft 457 kts 181°
2026-05-06 02:11 24.08550 -99.95758 23397 ft 458 kts 181°
2026-05-06 02:11 24.05358 -99.95592 23470 ft 460 kts 180°
2026-05-06 02:12 24.02205 -99.95426 23717 ft 458 kts 180°
2026-05-06 02:12 23.99009 -99.95258 23758 ft 460 kts 180°
2026-05-06 02:12 23.95816 -99.95088 23935 ft 458 kts 180°
2026-05-06 02:12 23.92615 -99.94923 23972 ft 461 kts 180°
2026-05-06 02:13 23.89409 -99.94754 24196 ft 460 kts 180°
2026-05-06 02:13 23.86203 -99.94585 24306 ft 462 kts 180°
2026-05-06 02:13 23.79756 -99.94247 24600 ft 464 kts 180°
2026-05-06 02:14 23.76529 -99.94078 24769 ft 464 kts 180°
2026-05-06 02:14 23.73296 -99.93908 24901 ft 465 kts 180°
2026-05-06 02:14 23.70062 -99.93739 25037 ft 466 kts 180°
2026-05-06 02:14 23.66812 -99.93569 25174 ft 467 kts 180°
2026-05-06 02:15 23.63562 -99.93399 25304 ft 467 kts 180°
2026-05-06 02:15 23.60312 -99.93229 25439 ft 468 kts 180°
2026-05-06 02:15 23.57061 -99.93059 25561 ft 469 kts 180°
2026-05-06 02:15 23.53839 -99.92891 25702 ft 469 kts 180°
2026-05-06 02:16 23.50579 -99.92721 25884 ft 469 kts 180°
2026-05-06 02:16 23.47344 -99.92552 26075 ft 468 kts 180°
2026-05-06 02:16 23.44081 -99.92382 26222 ft 468 kts 180°
2026-05-06 02:16 23.40829 -99.92213 26403 ft 467 kts 179°
2026-05-06 02:17 23.37570 -99.92043 26592 ft 467 kts 180°
2026-05-06 02:17 23.34363 -99.91876 26800 ft 467 kts 180°
2026-05-06 02:17 23.31115 -99.91707 27020 ft 466 kts 180°
2026-05-06 02:17 23.27859 -99.91537 27230 ft 466 kts 180°
2026-05-06 02:18 23.24621 -99.91369 27455 ft 465 kts 180°
2026-05-06 02:18 23.21386 -99.91201 27682 ft 465 kts 180°
2026-05-06 02:18 23.18152 -99.91033 27921 ft 464 kts 180°
2026-05-06 02:18 23.14975 -99.90868 28172 ft 463 kts 180°
2026-05-06 02:19 23.11749 -99.90700 28460 ft 461 kts 180°
2026-05-06 02:19 23.08547 -99.90534 28689 ft 461 kts 180°
2026-05-06 02:19 23.05333 -99.90368 28883 ft 463 kts 180°
2026-05-06 02:19 23.02117 -99.90202 29083 ft 463 kts 180°
2026-05-06 02:20 22.95700 -99.89869 29613 ft 462 kts 181°
2026-05-06 02:20 22.92483 -99.89702 29863 ft 461 kts 180°
2026-05-06 02:20 22.89289 -99.89537 30091 ft 460 kts 180°
2026-05-06 02:21 22.86087 -99.89372 30310 ft 460 kts 180°
2026-05-06 02:21 22.82890 -99.89206 30542 ft 459 kts 180°
2026-05-06 02:21 22.79699 -99.89041 30745 ft 459 kts 180°
2026-05-06 02:21 22.76514 -99.88877 30933 ft 459 kts 180°
2026-05-06 02:22 22.73356 -99.88714 31147 ft 459 kts 180°
2026-05-06 02:22 22.70167 -99.88549 31369 ft 459 kts 180°
2026-05-06 02:22 22.66979 -99.88385 31606 ft 458 kts 180°
2026-05-06 02:22 22.63792 -99.88221 31835 ft 457 kts 180°
2026-05-06 02:23 22.60616 -99.88057 32075 ft 457 kts 180°
2026-05-06 02:23 22.57436 -99.87894 32307 ft 456 kts 180°
2026-05-06 02:23 22.54264 -99.87730 32538 ft 456 kts 180°
2026-05-06 02:23 22.51093 -99.87567 32737 ft 456 kts 180°
2026-05-06 02:24 22.47926 -99.87404 32752 ft 455 kts 180°
2026-05-06 02:24 22.41653 -99.87082 32761 ft 454 kts 180°
2026-05-06 02:24 22.38484 -99.86919 32913 ft 455 kts 180°
2026-05-06 02:25 22.35320 -99.86757 33164 ft 454 kts 180°
2026-05-06 02:25 22.32184 -99.86596 33396 ft 453 kts 180°
2026-05-06 02:25 22.29024 -99.86434 33627 ft 453 kts 180°
2026-05-06 02:25 22.25889 -99.86273 33850 ft 452 kts 180°
2026-05-06 02:26 22.22766 -99.86113 34045 ft 451 kts 180°
2026-05-06 02:26 22.19621 -99.85952 34229 ft 451 kts 180°
2026-05-06 02:26 22.16500 -99.85792 34417 ft 450 kts 180°
2026-05-06 02:26 22.13402 -99.85634 34584 ft 451 kts 180°
2026-05-06 02:27 22.10264 -99.85474 34708 ft 451 kts 180°
2026-05-06 02:27 22.03981 -99.85153 34751 ft 451 kts 180°
2026-05-06 02:28 21.97715 -99.84833 34761 ft 451 kts 180°
2026-05-06 02:28 21.91435 -99.84512 34761 ft 451 kts 180°
2026-05-06 02:29 21.85208 -99.84195 34764 ft 451 kts 180°
2026-05-06 02:29 21.78947 -99.83877 34758 ft 452 kts 180°
2026-05-06 02:30 21.72645 -99.83555 34778 ft 452 kts 180°
2026-05-06 02:30 21.66356 -99.83236 34773 ft 452 kts 179°
2026-05-06 02:31 21.60068 -99.82917 34785 ft 452 kts 179°
2026-05-06 02:31 21.53846 -99.82601 34784 ft 452 kts 180°
2026-05-06 02:32 21.47559 -99.82282 34789 ft 452 kts 179°
2026-05-06 02:32 21.41242 -99.81962 34791 ft 453 kts 179°
2026-05-06 02:33 21.34963 -99.81644 34792 ft 453 kts 179°
2026-05-06 02:33 21.32874 -99.81539 34794 ft 453 kts 179°
2026-05-06 02:34 21.22404 -99.81010 34799 ft 453 kts 179°
2026-05-06 02:34 21.16113 -99.80692 34802 ft 453 kts 179°
2026-05-06 02:35 21.09833 -99.80138 34833 ft 454 kts 174°
2026-05-06 02:35 21.03604 -99.79249 34818 ft 454 kts 175°
2026-05-06 02:36 20.97332 -99.78408 34843 ft 454 kts 175°
2026-05-06 02:36 20.91075 -99.77576 34842 ft 454 kts 175°
2026-05-06 02:37 20.84810 -99.76745 34839 ft 454 kts 175°
2026-05-06 02:37 20.78550 -99.75915 34851 ft 456 kts 174°
2026-05-06 02:38 20.72260 -99.75082 34861 ft 456 kts 175°
2026-05-06 02:38 20.65953 -99.74247 34862 ft 457 kts 175°
2026-05-06 02:39 20.59695 -99.73420 34877 ft 457 kts 175°
2026-05-06 02:39 20.53394 -99.72587 34881 ft 457 kts 175°
2026-05-06 02:40 20.47082 -99.71753 34882 ft 457 kts 175°
2026-05-06 02:40 20.40758 -99.70919 34898 ft 457 kts 175°
2026-05-06 02:41 20.34444 -99.70087 34905 ft 458 kts 175°
2026-05-06 02:41 20.28113 -99.69253 34927 ft 458 kts 175°
2026-05-06 02:42 20.21786 -99.68421 34927 ft 458 kts 175°
2026-05-06 02:42 20.15456 -99.67588 34953 ft 459 kts 174°
2026-05-06 02:43 20.09173 -99.66763 34958 ft 459 kts 174°
2026-05-06 02:43 20.02835 -99.65931 34980 ft 459 kts 174°
2026-05-06 02:44 19.96492 -99.65099 34981 ft 459 kts 174°
2026-05-06 02:44 19.90184 -99.64272 35004 ft 459 kts 174°
2026-05-06 02:45 19.84878 -99.63577 35001 ft 459 kts 174°
2026-05-06 02:45 19.78563 -99.62751 35017 ft 460 kts 174°
2026-05-06 02:46 19.72243 -99.61924 35019 ft 460 kts 174°
2026-05-06 02:46 19.65876 -99.61093 35080 ft 460 kts 174°
2026-05-06 02:47 19.59568 -99.60269 35170 ft 460 kts 174°
2026-05-06 02:47 19.53220 -99.59441 35251 ft 460 kts 174°
2026-05-06 02:48 19.46829 -99.58608 35341 ft 462 kts 174°
2026-05-06 02:48 19.40445 -99.57776 35393 ft 461 kts 174°
2026-05-06 02:49 19.34115 -99.56953 35393 ft 462 kts 174°
2026-05-06 02:49 19.27729 -99.56122 35394 ft 462 kts 174°
2026-05-06 02:50 19.21340 -99.55292 35347 ft 462 kts 174°
2026-05-06 02:50 19.14963 -99.54464 35259 ft 461 kts 174°
2026-05-06 02:51 19.08585 -99.53637 35140 ft 461 kts 174°
2026-05-06 02:51 19.02270 -99.52818 35045 ft 461 kts 174°
2026-05-06 02:52 18.95897 -99.51993 34934 ft 461 kts 174°
2026-05-06 02:52 18.89518 -99.51167 34931 ft 461 kts 174°
2026-05-06 02:53 18.83131 -99.50341 34890 ft 463 kts 174°
2026-05-06 02:53 18.76728 -99.49513 34889 ft 463 kts 174°
2026-05-06 02:54 18.70372 -99.48692 34849 ft 463 kts 174°
2026-05-06 02:54 18.63959 -99.47865 34848 ft 463 kts 174°
2026-05-06 02:55 18.57553 -99.47039 34821 ft 464 kts 174°
2026-05-06 02:55 18.54354 -99.46627 34660 ft 462 kts 174°
2026-05-06 02:55 18.51179 -99.46218 34433 ft 461 kts 174°
2026-05-06 02:55 18.47986 -99.45806 34211 ft 461 kts 175°
2026-05-06 02:56 18.44799 -99.45396 33994 ft 462 kts 174°
2026-05-06 02:56 18.41599 -99.44984 33768 ft 463 kts 175°
2026-05-06 02:56 18.38398 -99.44573 33518 ft 463 kts 174°
2026-05-06 02:56 18.35228 -99.44165 33271 ft 464 kts 174°
2026-05-06 02:57 18.32020 -99.43753 33026 ft 463 kts 175°
2026-05-06 02:57 18.28823 -99.43342 32789 ft 464 kts 174°
2026-05-06 02:57 18.25623 -99.42931 32262 ft 461 kts 174°
2026-05-06 02:57 18.22417 -99.42519 31246 ft 468 kts 174°
2026-05-06 02:58 18.19160 -99.42101 30414 ft 471 kts 173°
2026-05-06 02:58 18.15903 -99.41683 29702 ft 470 kts 173°
2026-05-06 02:58 18.12659 -99.41267 28733 ft 472 kts 173°
2026-05-06 02:58 18.09398 -99.40849 27806 ft 474 kts 173°
2026-05-06 02:59 18.06155 -99.40434 26954 ft 474 kts 173°
2026-05-06 02:59 18.02880 -99.40015 26221 ft 473 kts 173°
2026-05-06 02:59 17.99617 -99.39597 25564 ft 469 kts 172°
2026-05-06 02:59 17.96377 -99.39182 24905 ft 467 kts 172°
2026-05-06 03:00 17.93150 -99.38769 24291 ft 465 kts 172°
2026-05-06 03:00 17.89945 -99.38359 23635 ft 463 kts 172°
2026-05-06 03:00 17.86782 -99.37954 22931 ft 461 kts 172°
2026-05-06 03:00 17.83610 -99.37549 22262 ft 458 kts 171°
2026-05-06 03:01 17.80457 -99.37146 21630 ft 454 kts 172°
2026-05-06 03:01 17.77332 -99.36748 21050 ft 451 kts 172°
2026-05-06 03:01 17.74226 -99.36352 20420 ft 448 kts 171°
2026-05-06 03:01 17.71133 -99.35956 19810 ft 446 kts 172°
2026-05-06 03:02 17.68058 -99.35563 19193 ft 444 kts 172°
2026-05-06 03:02 17.64986 -99.35172 18619 ft 442 kts 171°
2026-05-06 03:02 17.61947 -99.34785 18051 ft 439 kts 171°
2026-05-06 03:02 17.58911 -99.34398 17395 ft 437 kts 171°
2026-05-06 03:03 17.55914 -99.34016 16830 ft 432 kts 171°
2026-05-06 03:03 17.52933 -99.33636 16196 ft 430 kts 171°
2026-05-06 03:03 17.49972 -99.33379 15746 ft 426 kts 179°
2026-05-06 03:03 17.47063 -99.33879 15105 ft 430 kts 194°
2026-05-06 03:04 17.44201 -99.34753 14473 ft 429 kts 194°
2026-05-06 03:04 17.41346 -99.35644 13992 ft 425 kts 195°
2026-05-06 03:04 17.38535 -99.36541 13598 ft 419 kts 195°
2026-05-06 03:04 17.35759 -99.37437 13096 ft 416 kts 195°
2026-05-06 03:05 17.33020 -99.38326 12792 ft 406 kts 195°
2026-05-06 03:05 17.30354 -99.39190 12626 ft 395 kts 195°
2026-05-06 03:05 17.27757 -99.40033 12438 ft 385 kts 195°
2026-05-06 03:05 17.25224 -99.40854 12252 ft 376 kts 196°
2026-05-06 03:06 17.22751 -99.41656 12074 ft 367 kts 196°
2026-05-06 03:06 17.20371 -99.42428 11902 ft 358 kts 196°
2026-05-06 03:06 17.18020 -99.43191 11744 ft 349 kts 196°
2026-05-06 03:06 17.15729 -99.43933 11617 ft 339 kts 195°
2026-05-06 03:07 17.13475 -99.44664 11179 ft 341 kts 196°
2026-05-06 03:07 17.11201 -99.45401 10686 ft 344 kts 196°
2026-05-06 03:07 17.08899 -99.46146 10200 ft 345 kts 197°
2026-05-06 03:07 17.06627 -99.46881 9717 ft 338 kts 197°
2026-05-06 03:08 17.04411 -99.47599 9275 ft 329 kts 197°
2026-05-06 03:08 17.02276 -99.48290 8862 ft 320 kts 197°
2026-05-06 03:08 17.00175 -99.48969 8443 ft 312 kts 197°
2026-05-06 03:08 16.98124 -99.49633 8062 ft 304 kts 197°
2026-05-06 03:09 16.96132 -99.50283 7651 ft 296 kts 204°
2026-05-06 03:09 16.94446 -99.51469 7197 ft 291 kts 223°
2026-05-06 03:09 16.92999 -99.52923 6832 ft 285 kts 224°
2026-05-06 03:09 16.91605 -99.54355 6504 ft 277 kts 224°
2026-05-06 03:10 16.90252 -99.55744 6194 ft 269 kts 224°
2026-05-06 03:10 16.88923 -99.57097 5746 ft 266 kts 220°
2026-05-06 03:10 16.87315 -99.57940 5184 ft 265 kts 187°
2026-05-06 03:10 16.85512 -99.57724 4824 ft 259 kts 161°
2026-05-06 03:11 16.83815 -99.57174 4593 ft 253 kts 166°
2026-05-06 03:11 16.82106 -99.56764 4335 ft 252 kts 171°
2026-05-06 03:11 16.80372 -99.56432 4131 ft 255 kts 173°
2026-05-06 03:11 16.78622 -99.56250 4033 ft 246 kts 189°
2026-05-06 03:12 16.77021 -99.56640 4045 ft 226 kts 200°
2026-05-06 03:12 16.75553 -99.57073 4127 ft 218 kts 198°
2026-05-06 03:12 16.74094 -99.57525 4060 ft 219 kts 199°
2026-05-06 03:12 16.72676 -99.58090 3718 ft 219 kts 215°
2026-05-06 03:13 16.71666 -99.59244 3322 ft 216 kts 246°
2026-05-06 03:13 16.71351 -99.60734 2909 ft 208 kts 271°
2026-05-06 03:13 16.71584 -99.62159 2504 ft 198 kts 285°
2026-05-06 03:13 16.71988 -99.63491 2225 ft 185 kts 287°
2026-05-06 03:14 16.72371 -99.64699 1979 ft 166 kts 287°
2026-05-06 03:14 16.72710 -99.65788 1771 ft 151 kts 286°
2026-05-06 03:14 16.73024 -99.66834 1531 ft 150 kts 285°
2026-05-06 03:14 16.73347 -99.67854 1282 ft 146 kts 287°
2026-05-06 03:15 16.73679 -99.68852 1076 ft 143 kts 286°
2026-05-06 03:15 16.73978 -99.69831 735 ft 143 kts 284°
2026-05-06 03:15 16.74278 -99.70858 508 ft 153 kts 287°
2026-05-06 03:15 16.74599 -99.71906 366 ft 152 kts 287°
2026-05-06 03:16 16.74946 -99.72952 170 ft 151 kts 287°
2026-05-06 03:16 16.75267 -99.73975 21 ft 139 kts 286°
2026-05-06 03:16 16.75493 -99.74698 21 ft 73 kts 287°
2026-05-06 03:16 16.75613 -99.74962 19 ft 39 kts 310°
2026-05-06 03:17 16.75825 -99.75105 20 ft 32 kts 337°
2026-05-06 03:17 16.75922 -99.75148 20 ft 0 kts 337°
2026-05-06 03:18 16.75923 -99.75149 20 ft 0 kts 337°
2026-05-06 03:18 16.75926 -99.75150 20 ft 2 kts 337°
2026-05-06 03:18 16.75970 -99.75170 19 ft 12 kts 334°
2026-05-06 03:19 16.75993 -99.75236 20 ft 10 kts 251°
2026-05-06 03:19 16.75967 -99.75310 20 ft 11 kts 262°
2026-05-06 03:19 16.75976 -99.75373 21 ft 9 kts 286°
2026-05-06 03:19 16.75982 -99.75392 21 ft 0 kts 291°
2026-05-06 03:20 16.75985 -99.75394 20 ft 1 kts 321°
2026-05-06 03:20 16.76008 -99.75393 20 ft 8 kts 10°
2026-05-06 03:20 16.76066 -99.75374 20 ft 1 kts 18°
2026-05-06 03:21 16.76070 -99.75373 20 ft 0 kts 17°
2026-05-06 03:21 16.76077 -99.75371 19 ft 3 kts 17°
2026-05-06 03:21 16.76090 -99.75366 19 ft 1 kts 19°
2026-05-06 03:21 16.76091 -99.75366 19 ft 0 kts 19°